Flag for Japan Weather past 2 weeks in Kawasaki, Japan

Now
68 °F

Sprinkles. Broken clouds.


Feels Like: 68 °F
Forecast: 70 / 77 °F
Wind: 15 mph from East

Location: Tokyo International Airport

Current Time: Jul 1, 2015 at 9:50:01 AM

Latest Report: Jul 1, 2015 at 9:00 AM


Visibility: 4 mi

Pressure: 29.36 "Hg

Humidity: 100%

Dew point: 68 °F

Location of KawasakiLocation

Historic Weather in Kawasaki — Graph

°F

Kawasaki temperature yesterday

Maximum temperature yesterday: 77 °F (at 2:00 PM)
Minimum temperature yesterday: 68 °F (at 1:30 AM)
Average temperature yesterday: 72 °F

Past Weeks' High & Low Weather Summary

 TemperatureHumidityPressure
High82 °F (Jun 24, 2:00 PM)100% (Jun 27, 1:00 AM)29.92 "Hg (Jun 27, 1:00 AM)
Low66 °F (Jun 18, 11:50 PM)48% (Jun 28, 1:30 PM)29.36 "Hg (Jun 27, 2:00 PM)
Average72 °F81%29.73 "Hg
* Reported Jun 16 8:00 AM — Jul 1 8:30 AM, Kawasaki, Weather by CustomWeather, © 2015

Note: Actual official high and low records may vary slightly from our data, if they occured in-between our weather recording intervals... More about our weather records

Advertising

Kawasaki weather history for previous 24 hours

 ConditionsComfort  
Time TempWeatherWind HumidityBarometerVisibility
8:30 AM
Wed, Jul 1
68 °FSprinkles. Fog.12 mph100%29.39 "Hg3 mi
8:00 AM68 °FRain showers. Fog.13 mph100%29.39 "Hg1 mi
7:30 AM68 °FLight rain. Fog.8 mph100%29.42 "Hg2 mi
7:00 AM68 °FLight rain. Fog.7 mph94%29.42 "Hg2 mi
6:48 AM68 °FRain. Fog.6 mph94%29.42 "Hg2 mi
6:30 AM68 °FLight rain. Fog.7 mph94%29.42 "Hg2 mi
6:00 AM68 °FLight rain. Fog.8 mph94%29.42 "Hg3 mi
5:48 AM68 °FLight rain. Fog.12 mph88%29.45 "Hg3 mi
5:30 AM68 °FLight rain. Partly sunny.10 mph94%29.45 "Hg6 mi
5:00 AM68 °FLight rain. Broken clouds.9 mph94%29.45 "HgN/A
4:30 AM68 °FLight rain. Broken clouds.10 mph94%29.45 "Hg4 mi
4:00 AM68 °FLight rain. Partly cloudy.12 mph94%29.45 "Hg5 mi
3:30 AM68 °FLight rain. Partly cloudy.10 mph94%29.47 "HgN/A
3:00 AM70 °FLight rain. Passing clouds.10 mph88%29.47 "HgN/A
2:00 AM70 °FLight rain. Passing clouds.7 mph88%29.50 "Hg6 mi
1:30 AM70 °FLight rain. Passing clouds.9 mph83%29.50 "HgN/A
1:00 AM70 °FLight rain. Passing clouds.8 mph88%29.50 "HgN/A
12:00 AM70 °FLight rain. Mostly cloudy.10 mph88%29.53 "HgN/A
11:30 PM
Tue, Jun 30
70 °FLight rain. Low clouds.12 mph88%29.56 "HgN/A
10:30 PM72 °FLight rain. Overcast.9 mph83%29.56 "HgN/A
10:00 PM72 °FLight rain. Overcast.7 mph83%29.59 "HgN/A
9:30 PM72 °FLight rain. Overcast.9 mph83%29.59 "HgN/A
9:00 PM72 °FLight rain. Overcast.10 mph83%29.59 "HgN/A
8:30 PM72 °FScattered showers. Passing clouds.15 mph83%29.59 "HgN/A
8:00 PM72 °FPartly cloudy.15 mph83%29.59 "HgN/A
7:30 PM73 °FPassing clouds.13 mph78%29.59 "HgN/A
7:00 PM73 °FPartly cloudy.10 mph78%29.59 "HgN/A
6:30 PM75 °FBroken clouds.10 mph74%29.59 "HgN/A
6:00 PM75 °FBroken clouds.13 mph74%29.59 "HgN/A
5:45 PM75 °FBroken clouds.9 mph74%29.59 "HgN/A
5:30 PM73 °FBroken clouds.17 mph78%29.56 "HgN/A
5:00 PM75 °FBroken clouds.14 mph74%29.59 "HgN/A
4:30 PM75 °FPartly sunny.9 mph74%29.59 "HgN/A
4:00 PM75 °FPartly sunny.9 mph74%29.62 "HgN/A
3:30 PM75 °FPartly sunny.13 mph74%29.59 "HgN/A
3:00 PM75 °FBroken clouds.10 mph74%29.59 "HgN/A
2:30 PM75 °FPartly sunny.9 mph74%29.62 "HgN/A
2:00 PM77 °FPartly sunny.10 mph69%29.62 "HgN/A
1:30 PM75 °FPartly sunny.10 mph74%29.65 "HgN/A
1:00 PM75 °FPartly sunny.12 mph74%29.65 "HgN/A
12:30 PM75 °FPartly sunny.9 mph69%29.68 "HgN/A
12:00 PM75 °FPartly sunny.8 mph69%29.68 "HgN/A
11:30 AM73 °FBroken clouds.8 mph74%29.71 "HgN/A
11:00 AM75 °FPartly sunny.8 mph69%29.71 "HgN/A
10:30 AM73 °FPartly sunny.7 mph69%29.71 "HgN/A
10:00 AM73 °FPartly sunny.5 mph74%29.74 "HgN/A
9:30 AM72 °FPartly sunny.8 mph78%29.74 "HgN/A
9:00 AM75 °FPartly sunny.7 mph74%29.74 "HgN/A
Weather by CustomWeather, © 2015

See weather overviewHow to use our weather pages